Change the Weather History Date:

Wednesday, May 1, 2013

  Actual Average (KRDD) Record (KRDD)
Temperature  
Mean Temperature 58 °F -  
Max Temperature 77 °F 76 °F 89 °F (1996)
Min Temperature 39 °F 50 °F 36 °F (1988)
Degree Days  
Heating Degree Days 7    
Cooling Degree Days 0    
Growing Degree Days 8 (Base 50)    
Moisture  
Dew Point 16 °F    
Average Humidity 24    
Maximum Humidity 56    
Minimum Humidity 8    
Precipitation  
Precipitation 0.00 in 0.06 in 1.00 in (2009)
Month to date precipitation 0.06  
Year to date precipitation 18.38  
Since 1 July precipitation 32.14  
Sea Level Pressure  
Sea Level Pressure 30.22 in    
Wind  
Wind Speed 4 mph (NE)    
Max Wind Speed 12 mph    
Max Gust Speed 26 mph    
Visibility 10 miles    
Events      
T = Trace of Precipitation, MM = Missing Value Source: NWS Daily Summary

Daily Weather History Graph

Daily Weather History Graph

Search for Another Location

Airport or City:

Trip Planner

Search our weather history database for the weather conditions in past years. The results will help you decide how hot, cold, wet, or windy it might be!

Date:

Astronomy

May. 01, 2013 Rise Set
Actual Time 6:09 AM PDT 8:08 PM PDT
Civil Twilight 5:40 AM PDT 8:38 PM PDT
Nautical Twilight 5:03 AM PDT 9:14 PM PDT
Astronomical Twilight 4:24 AM PDT 9:54 PM PDT
Moon 1:21 AM PDT 11:54 AM PDT
Length of Visible Light 14h 58m
Length of Day
13h 58m
Waning Gibbous, 58% of the Moon is Illuminated
May 1
Waning Gibbous
May 2
Last Quarter
May 9
New
May 17
First Quarter
May 24
Full

Hourly Weather History & Observations

Time (PDT) Temp. Windchill Dew Point Humidity Pressure Visibility Wind Dir Wind Speed Gust Speed Precip Events Conditions
12:15 AM 42.8 °F 41.1 °F 23.0 °F 46% 30.17 in 10.0 mi NE 3.5 mph - N/A   Mostly Cloudy
12:35 AM 41.0 °F 38.0 °F 23.0 °F 49% 30.17 in 10.0 mi NNE 4.6 mph - N/A   Partly Cloudy
12:55 AM 41.0 °F - 23.0 °F 49% 30.17 in 10.0 mi Calm Calm - N/A   Clear
1:15 AM 41.0 °F 39.0 °F 23.0 °F 49% 30.18 in 10.0 mi NNE 3.5 mph - N/A   Clear
1:35 AM 39.2 °F - 24.8 °F 56% 30.18 in 10.0 mi Calm Calm - N/A   Clear
1:55 AM 39.2 °F - 24.8 °F 56% 30.18 in 10.0 mi Calm Calm - N/A   Clear
2:15 AM 39.2 °F 37.0 °F 24.8 °F 56% 30.18 in 10.0 mi NE 3.5 mph - N/A   Partly Cloudy
2:35 AM 41.0 °F 38.0 °F 24.8 °F 53% 30.18 in 10.0 mi NNE 4.6 mph - N/A   Partly Cloudy
2:55 AM 46.4 °F - 23.0 °F 40% 30.18 in 10.0 mi Calm Calm - N/A   Clear
3:15 AM 41.0 °F - 24.8 °F 53% 30.18 in 10.0 mi Calm Calm - N/A   Partly Cloudy
3:35 AM 41.0 °F 39.0 °F 24.8 °F 53% 30.19 in 10.0 mi NNE 3.5 mph - N/A   Partly Cloudy
3:55 AM 39.2 °F 34.2 °F 24.8 °F 56% 30.19 in 10.0 mi NNE 6.9 mph - N/A   Scattered Clouds
4:15 AM 39.2 °F 35.9 °F 24.8 °F 56% 30.19 in 10.0 mi NNE 4.6 mph - N/A   Scattered Clouds
4:35 AM 41.0 °F 37.1 °F 24.8 °F 53% 30.19 in 10.0 mi NNE 5.8 mph - N/A   Partly Cloudy
4:55 AM 44.6 °F 41.4 °F 19.4 °F 37% 30.19 in 10.0 mi NE 5.8 mph - N/A   Clear
5:15 AM 46.4 °F - 19.4 °F 34% 30.19 in 10.0 mi Calm Calm - N/A   Clear
5:35 AM 42.8 °F - 21.2 °F 42% 30.19 in 10.0 mi Calm Calm - N/A   Clear
5:55 AM 44.6 °F - 19.4 °F 37% 30.19 in 10.0 mi Calm Calm - N/A   Clear
6:15 AM 44.6 °F - 21.2 °F 39% 30.19 in 10.0 mi Calm Calm - N/A   Clear
6:35 AM 44.6 °F 43.1 °F 19.4 °F 37% 30.20 in 10.0 mi ESE 3.5 mph - N/A   Clear
6:55 AM 46.4 °F - 19.4 °F 34% 30.20 in 10.0 mi Calm Calm - N/A   Clear
7:15 AM 46.4 °F - 19.4 °F 34% 30.21 in 10.0 mi Calm Calm - N/A   Clear
7:35 AM 46.4 °F - 23.0 °F 40% 30.22 in 10.0 mi Calm Calm - N/A   Clear
7:55 AM 46.4 °F - 24.8 °F 43% 30.22 in 10.0 mi Calm Calm - N/A   Clear
8:15 AM 48.2 °F - 26.6 °F 43% 30.23 in 10.0 mi Calm Calm - N/A   Clear
8:35 AM 55.4 °F - 19.4 °F 25% 30.23 in 10.0 mi East 3.5 mph - N/A   Clear
8:55 AM 57.2 °F - 19.4 °F 23% 30.24 in 10.0 mi East 3.5 mph - N/A   Clear
9:15 AM 59.0 °F - 19.4 °F 22% 30.23 in 10.0 mi NNE 6.9 mph - N/A   Clear
9:35 AM 60.8 °F - 14.0 °F 16% 30.24 in 10.0 mi East 4.6 mph - N/A   Clear
9:55 AM 62.6 °F - 8.6 °F 12% 30.24 in 10.0 mi NE 8.1 mph 17.3 mph N/A   Clear
10:15 AM 64.4 °F - 6.8 °F 10% 30.24 in 10.0 mi NE 9.2 mph - N/A   Clear
10:35 AM 66.2 °F - 6.8 °F 10% 30.24 in 10.0 mi East 5.8 mph - N/A   Clear
10:55 AM 66.2 °F - 6.8 °F 10% 30.25 in 10.0 mi ENE 4.6 mph 16.1 mph N/A   Clear
11:15 AM 66.2 °F - 5.0 °F 9% 30.25 in 10.0 mi East 4.6 mph 16.1 mph N/A   Clear
11:35 AM 68.0 °F - 5.0 °F 8% 30.25 in 10.0 mi NE 6.9 mph 17.3 mph N/A   Clear
11:55 AM 68.0 °F - 5.0 °F 8% 30.25 in 10.0 mi NE 8.1 mph 26.5 mph N/A   Clear
12:15 PM 69.8 °F - 5.0 °F 8% 30.25 in 10.0 mi NE 9.2 mph 19.6 mph N/A   Clear
12:35 PM 71.6 °F - 6.8 °F 8% 30.25 in 10.0 mi ENE 9.2 mph 20.7 mph N/A   Clear
12:55 PM 71.6 °F - 6.8 °F 8% 30.24 in 10.0 mi NE 10.4 mph 23.0 mph N/A   Clear
1:15 PM 73.4 °F - 8.6 °F 8% 30.24 in 10.0 mi NE 10.4 mph 18.4 mph N/A   Clear
1:35 PM 73.4 °F - 8.6 °F 8% 30.24 in 10.0 mi East 5.8 mph - N/A   Clear
1:55 PM 73.4 °F - 8.6 °F 8% 30.24 in 10.0 mi NE 9.2 mph 20.7 mph N/A   Clear
2:15 PM 73.4 °F - 10.4 °F 9% 30.23 in 10.0 mi East 6.9 mph 18.4 mph N/A   Clear
2:35 PM 75.2 °F - 10.4 °F 8% 30.23 in 10.0 mi NE 8.1 mph 19.6 mph N/A   Clear
2:55 PM 75.2 °F - 12.2 °F 9% 30.24 in 10.0 mi NE 6.9 mph - N/A   Clear
3:15 PM 75.2 °F - 10.4 °F 8% 30.23 in 10.0 mi NE 6.9 mph 19.6 mph N/A   Clear
3:35 PM 75.2 °F - 10.4 °F 8% 30.23 in 10.0 mi NNE 11.5 mph 19.6 mph N/A   Clear
3:55 PM 75.2 °F - 12.2 °F 9% 30.23 in 10.0 mi ENE 6.9 mph 17.3 mph N/A   Clear
4:15 PM 77.0 °F - 12.2 °F 9% 30.22 in 10.0 mi East 9.2 mph 17.3 mph N/A   Clear
4:35 PM 77.0 °F - 12.2 °F 9% 30.22 in 10.0 mi East 6.9 mph 18.4 mph N/A   Clear
4:55 PM 77.0 °F - 12.2 °F 9% 30.22 in 10.0 mi ENE 5.8 mph 19.6 mph N/A   Clear
5:15 PM 77.0 °F - 12.2 °F 9% 30.21 in 10.0 mi East 3.5 mph - N/A   Clear
5:35 PM 77.0 °F - 14.0 °F 9% 30.22 in 10.0 mi ENE 5.8 mph - N/A   Clear
5:55 PM 77.0 °F - 12.2 °F 9% 30.21 in 10.0 mi NE 6.9 mph - N/A   Clear
6:15 PM 75.2 °F - 10.4 °F 8% 30.21 in 10.0 mi NNE 5.8 mph - N/A   Clear
6:35 PM 75.2 °F - 14.0 °F 10% 30.22 in 10.0 mi NE 5.8 mph - N/A   Clear
6:55 PM 75.2 °F - 12.2 °F 9% 30.22 in 10.0 mi ENE 5.8 mph - N/A   Clear
7:15 PM 73.4 °F - 12.2 °F 10% 30.22 in 10.0 mi Calm Calm - N/A   Clear
7:35 PM 71.6 °F - 12.2 °F 10% 30.23 in 10.0 mi East 3.5 mph - N/A   Clear
7:55 PM 69.8 °F - 14.0 °F 12% 30.23 in 10.0 mi ENE 3.5 mph - N/A   Clear
8:15 PM 68.0 °F - 15.8 °F 13% 30.24 in 10.0 mi NNE 3.5 mph - N/A   Clear
8:35 PM 64.4 °F - 19.4 °F 18% 30.24 in 10.0 mi Calm Calm - N/A   Clear
8:55 PM 60.8 °F - 19.4 °F 20% 30.25 in 10.0 mi NE 3.5 mph - N/A   Clear
9:15 PM 62.6 °F - 19.4 °F 19% 30.26 in 10.0 mi ENE 3.5 mph - N/A   Mostly Cloudy
9:35 PM 60.8 °F - 19.4 °F 20% 30.26 in 10.0 mi Calm Calm - N/A   Overcast
9:55 PM 62.6 °F - 17.6 °F 18% 30.27 in 10.0 mi Calm Calm - N/A   Overcast
10:15 PM 62.6 °F - 14.0 °F 15% 30.27 in 10.0 mi ENE 3.5 mph - N/A   Overcast
10:35 PM 62.6 °F - 15.8 °F 16% 30.27 in 10.0 mi NE 4.6 mph - N/A   Overcast
10:55 PM 64.4 °F - 12.2 °F 13% 30.28 in 10.0 mi ENE 4.6 mph - N/A   Overcast
11:15 PM 64.4 °F - 12.2 °F 13% 30.28 in 10.0 mi NE 3.5 mph - N/A   Overcast
11:35 PM 64.4 °F - 10.4 °F 12% 30.28 in 10.0 mi NE 8.1 mph - N/A   Overcast
11:55 PM 64.4 °F - 8.6 °F 11% 30.28 in 10.0 mi NE 6.9 mph - N/A   Overcast